Location: Doussal
(55.6167°N, 116.8333°W)
Time: 03:42:33
(UTC+00:00)

METEOR M2 - Pass Details

Date: 11 December 2023
Orbit: 818 x 826 km, 98.4° (Epoch: 25 February)

Event Time Altitude Azimuth Distance (km) Brightness Sun altitude
Rises 14:41:40 0° 14° (NNE) 3,375 ? -10.7°
Reaches altitude 10° 14:44:04 10° 9° (N) 2,437 ? -10.4°
Maximum altitude 14:49:16 51° 295° (WNW) 1,034 ? -9.7°
Drops below altitude 10° 14:54:25 10° 221° (SW) 2,417 ? -9.1°
Sets 14:56:48 0° 217° (SW) 3,344 ? -8.8°
